COSMOS 1988 (GLONASS)

Satellite information

Favourite Embed

Satellite Type and Status

PAYLOADIN ORBIT

Key statistics

Satellite COSMOS 1988 (GLONASS) at a glance.

Uptime

13487

Days in orbit

Revolutions

≈ 2.1

Per day

Orbit

MEO

Medium Earth Orbit

Inclination

64.8

Latest

Satellite identification and parameters

Extended collection of information and parameters for COSMOS 1988 (GLONASS).

Object identification

Identified? True

Debris? False

Object name: COSMOS 1988 (GLONASS)

International designator: 1989-001B

Object number (NORAD): 19750

Object ID (CCSDS): 19750

Country: COMMONWEALTH OF INDEPENDENT STATES (CIS)

Current information (Y/N): Y

RCS size: LARGE

Orbital parameters

Period: 675.734 minutes

Inclination: 64.8378 deg

SMA: 25508.051 km

Apoapsis: 19169.702 km

Periapsis: 19090.13 km

RAAN: 78.9775 deg

Eccentricy: 0.00155973

Argument of periapsis: 220.4513 deg

Mean anomaly: 141.6436 deg

Mean motion: 2.13101667 rev/day

Mean motion (dot): -0.00000051 rev/day2

B* drag term: 0.0 1/REarth

Two-line elements (TLE)

Creation date: Dec. 14, 2025, 3:07 a.m.

Reference frame: TEME

Reference center: EARTH

Epoch: Dec. 13, 2025, 3:45 p.m. UTC

TLE line 0: 0 COSMOS 1988 (GLONASS)

TLE line 1: 1 19750U 89001B 25347.65685716 -.00000051 00000-0 00000-0 0 9992

TLE line 2: 2 19750 64.8378 78.9775 0015597 220.4513 141.6436 2.13101667287332

Live tracking on map

Real-time ground track for satellite COSMOS 1988 (GLONASS).

In-orbit conjunctions

A list of the most updated potential collisions computed for object COSMOS 1988 (GLONASS).

Target Orbit TCA Probability of collision Miss distance Type
SL-12 R/B(2) MEO 2024-06-16 06:06:26 TBA 2863.0 (m) ROCKET BODY

Associated space launch

GLONASS navigation satellites

COSMOS 1988 (GLONASS) was lifted into orbit during the mission ‘Proton | Uragan 32 & 33’, on board a Proton space rocket.

The launch took place on Jan. 10, 1989, 2:05 a.m. from 200/39 (200L).

For more information about the launch, click the button.

Launch to space Proton | Uragan 32 & 33
Proton | Uragan 32 & 33

Agency: N/A

Status: Launch Successful

Launch date: Jan. 10, 1989, 2:05 a.m. UTC

Rocket: Proton

Launch pad: 200/39 (200L)

Location: Baikonur Cosmodrome, Republic of Kazakhstan

...

Latest news about this satellite

There are no fresh news available about this satellite. Check back as we update our databases every day.


Newsletter sign-up

Weekly statistics, charts and insights to help you stay on top of the space industry.